Location: Iława
(53.5981°N, 19.5659°E)
Time: 16:53:36
(UTC+01:00)

ISS - Visible Passes

Search period start: 16 January 2019 00:00
Search period end: 26 January 2019 00:00
Orbit: 404 x 407 km, 51.6° (Epoch: 17 January)

Date Brightness Start Highest point End Pass type
(mag) Time Alt. Az. Time Alt. Az. Time Alt. Az.
23 Jan -1.1 18:37:45 10° S 18:38:06 12° S 18:38:06 12° S visible
24 Jan -1.5 17:47:00 10° SSE 17:48:20 12° SE 17:48:29 12° SE visible
24 Jan -0.6 19:21:05 10° SW 19:21:11 11° SW 19:21:11 11° SW visible
25 Jan -2.1 18:29:27 10° SW 18:31:29 25° S 18:31:29 25° S visible
